[[{"header":{"parameterUnit":"m.s-1","parameterCategory":1,"la1":30.2992,"la2":30.254,"lo1":-89.0895,"lo2":-89.0443,"dy":0.0025,"dx":0.0025,"nx":19,"ny":19,"refTime":"2026-05-09T03:00:00:Z","depth":0,"parameterNumber":2,"parameterNumberName":"U-component_of_WINDS"},"data":[0,0,0,-0.8018,-0.8017,-0.8017,-0.8017,-0.8013,-0.8013,0,0,0,0,0,0,0,0,0,0,0,-0.8016,-0.8016,-0.8018,-0.8017,-0.8017,-0.8017,-0.8013,-0.8013,0,0,0,0,0,0,0,0,0,0,0,-0.8017,-0.8016,-0.8016,-0.8017,-0.8017,-0.8017,-0.8013,-0.8014,0,0,0,0,0,0,0,0,0,0,-0.8016,-0.8013,-0.8016,-0.8016,-0.8017,-0.8017,-0.8017,-0.8014,-0.8014,-0.8012,0,-0.801,0,-0.8012,-0.8012,-0.8012,0,0,0,-0.8018,-0.8014,-0.8015,-0.8016,-0.8017,-0.8017,-0.8017,-0.8014,-0.8014,-0.8012,-0.801,-0.801,-0.8011,-0.8012,-0.8012,-0.7998,-0.7998,0,0,-0.8018,-0.8015,-0.8015,-0.8014,-0.8015,-0.8017,-0.8017,-0.8014,-0.8012,-0.801,-0.801,-0.8011,-0.8012,-0.8012,-0.7998,-0.7998,0,0,0,-0.8018,-0.8015,-0.8017,-0.8015,-0.8015,-0.8017,-0.8017,-0.8012,-0.8013,-0.801,-0.8011,-0.8012,-0.8012,-0.7999,-0.7998,-0.799,0,0,0,-0.8018,-0.8015,-0.8017,-0.8015,-0.8015,-0.8013,-0.8015,-0.8013,-0.8013,-0.8011,-0.8012,-0.8012,-0.7999,-0.7998,-0.799,-0.7986,0,0,0,-0.8017,-0.8015,-0.8015,-0.8015,-0.8014,-0.8014,-0.8014,-0.8013,-0.8014,-0.8012,-0.8012,-0.7999,-0.7998,-0.7991,-0.7987,-0.7981,0,0,0,-0.8015,-0.8007,-0.8014,-0.8006,-0.8014,-0.8009,-0.8014,-0.801,-0.8008,-0.8012,-0.7999,-0.7998,-0.7991,-0.7987,-0.7982,-0.7975,-0.7972,0,0,-0.8003,-0.8006,-0.8001,-0.8008,-0.8,-0.8009,-0.8,-0.8001,-0.8004,-0.8,-0.8,-0.799,-0.7987,-0.7981,-0.796,-0.7958,0,0,0,-0.7997,-0.7993,-0.7992,-0.799,-0.7991,-0.7991,-0.7994,-0.7994,-0.7991,-0.8001,-0.7987,-0.7985,-0.7982,-0.7979,-0.7977,-0.7974,-0.7997,-0.7997,-0.7997,-0.7975,-0.798,-0.7972,-0.7976,-0.7974,-0.7977,-0.7976,-0.7977,-0.7981,-0.7978,-0.7976,-0.7963,-0.796,-0.7958,-0.7955,-0.7974,-0.7974,-0.7974,-0.7974,-0.7958,-0.7954,-0.7961,-0.7956,-0.796,-0.7956,-0.7958,-0.7962,-0.7958,-0.7965,-0.7962,-0.7968,-0.7956,-0.7953,-0.7974,-0.7974,-0.7974,-0.7974,-0.7974,-0.7944,-0.7943,-0.7944,-0.7942,-0.794,-0.7944,-0.794,-0.7945,-0.7948,-0.7946,-0.7944,-0.7945,-0.7944,-0.7945,-0.7945,-0.7945,-0.7945,-0.7945,-0.7945,-0.7928,-0.793,-0.7926,-0.7927,-0.7927,-0.7926,-0.793,-0.7929,-0.793,-0.7933,-0.7933,-0.7937,-0.7954,-0.7958,-0.7944,-0.7944,-0.7945,-0.7945,-0.7945,-0.7908,-0.7913,-0.7908,-0.7907,-0.7908,-0.7906,-0.7912,-0.791,-0.7911,-0.7909,-0.7914,-0.7926,-0.7929,-0.793,-0.7933,-0.7914,-0.7914,-0.7914,-0.7914,-0.7895,-0.7897,-0.7892,-0.7891,-0.7891,-0.7896,-0.7889,-0.7892,-0.7895,-0.7896,-0.79,-0.7904,-0.7906,-0.7907,-0.7909,-0.7912,-0.7887,-0.7887,-0.7887,-0.7882,-0.7884,-0.7877,-0.7882,-0.7883,-0.7884,-0.7878,-0.7876,-0.7881,-0.7886,-0.7896,-0.7897,-0.7905,-0.7907,-0.7911,-0.7914,-0.7919,0,0]},{"header":{"parameterUnit":"m.s-1","parameterCategory":1,"la1":30.2992,"la2":30.254,"lo1":-89.0895,"lo2":-89.0443,"dy":0.0025,"dx":0.0025,"nx":19,"ny":19,"refTime":"2026-05-09T03:00:00:Z","depth":0,"parameterNumber":3,"parameterNumberName":"V-component_of_WINDS"},"data":[0,0,0,2.5156,2.5157,2.5189,2.5189,2.5231,2.5232,0,0,0,0,0,0,0,0,0,0,0,2.5148,2.5148,2.5156,2.5157,2.5189,2.5189,2.5231,2.5232,0,0,0,0,0,0,0,0,0,0,0,2.5148,2.5148,2.5148,2.5157,2.5189,2.5189,2.5231,2.5206,0,0,0,0,0,0,0,0,0,0,2.5175,2.5168,2.5148,2.5148,2.5157,2.5189,2.5189,2.5205,2.5208,2.5217,0,2.5226,0,2.523,2.5235,2.5235,0,0,0,2.5156,2.5166,2.5174,2.5148,2.5158,2.5189,2.5174,2.5207,2.521,2.5221,2.5227,2.5228,2.5231,2.5235,2.5235,2.5294,2.5295,0,0,2.5154,2.5154,2.5172,2.5176,2.5172,2.5173,2.5175,2.5209,2.5215,2.5227,2.5229,2.5231,2.5235,2.5236,2.5294,2.5295,0,0,0,2.515,2.5153,2.516,2.5174,2.518,2.5174,2.5177,2.5213,2.5216,2.523,2.5232,2.5235,2.5236,2.5294,2.5294,2.5311,0,0,0,2.5149,2.515,2.5159,2.5159,2.518,2.5197,2.5181,2.5213,2.5217,2.5231,2.5235,2.5236,2.5293,2.5294,2.531,2.5319,0,0,0,2.5145,2.515,2.5155,2.5159,2.5173,2.5197,2.5201,2.5214,2.5218,2.5235,2.5237,2.5293,2.5294,2.5309,2.5317,2.5335,0,0,0,2.5141,2.5168,2.5155,2.5186,2.5173,2.5207,2.5201,2.5226,2.5242,2.5236,2.5294,2.5294,2.5308,2.5316,2.5334,2.535,2.5357,0,0,2.5175,2.5173,2.5191,2.518,2.5217,2.5202,2.5241,2.5255,2.5256,2.5282,2.5283,2.531,2.5317,2.5335,2.5395,2.54,0,0,0,2.5202,2.5215,2.5225,2.5241,2.5253,2.5264,2.5273,2.5278,2.53,2.527,2.5321,2.5325,2.5336,2.5343,2.5348,2.5357,2.5298,2.5298,2.5298,2.5249,2.525,2.5281,2.5286,2.5301,2.5311,2.5323,2.5332,2.5327,2.534,2.5347,2.5383,2.5393,2.5396,2.5405,2.5355,2.5356,2.5356,2.5356,2.53,2.5319,2.5313,2.5341,2.5342,2.5365,2.5375,2.5371,2.5392,2.5378,2.5387,2.5371,2.5402,2.541,2.5357,2.5357,2.5357,2.5356,2.5356,2.5331,2.534,2.5347,2.5371,2.5389,2.5393,2.5414,2.5413,2.5413,2.5422,2.543,2.543,2.543,2.5426,2.5426,2.5426,2.5426,2.5426,2.5426,2.5361,2.5368,2.5387,2.5403,2.5413,2.5427,2.5437,2.5447,2.5458,2.5456,2.5456,2.545,2.5405,2.5394,2.5428,2.5428,2.5428,2.5428,2.5427,2.5412,2.5401,2.5429,2.544,2.5459,2.5477,2.5476,2.5497,2.5505,2.5516,2.5508,2.5475,2.5471,2.5468,2.5458,2.5508,2.5508,2.5508,2.5508,2.5439,2.5437,2.5467,2.5484,2.5501,2.5503,2.5535,2.5543,2.5549,2.5554,2.5547,2.5534,2.5531,2.553,2.5525,2.5516,2.5579,2.5579,2.5579,2.547,2.5471,2.5498,2.5505,2.552,2.5533,2.5563,2.5582,2.5587,2.5582,2.5558,2.5555,2.5535,2.5528,2.5523,2.5515,2.5499,0,0]}]]